Theta_e
291 291 292 290 290 289 288 286 288 287 287 288 288 286 286 286 288 288 288 288 287 288 287 286 287 287 288 288 289 289 289 289 290 291 292 293 293 294 294 296 296 298 301 305
290 291 293 292 292 290 289 285 283 285 287 289 287 288 287 288 288 287 288 287 287 287 286 286 286 287 287 288 288 289 289 289 289 290 291 292 292 293 293 294 295 296 299 301
290 292 291 292 291 291 290 288 287 288 290 286 287 289 288 287 287 288 287 287 287 286 286 285 286 286 287 287 288 288 289 289 289 289 290 291 292 292 293 293 295 295 297 299
290 290 289 289 288 289 290 289 287 288 287 286 287 287 288 289 288 288 288 287 286 286 285 285 285 286 286 286 287 288 288 289 289 289 290 291 291 292 292 293 294 295 296 297
291 289 289 289 289 290 290 289 289 289 289 288 288 288 288 288 288 288 287 286 285 285 285 285 285 285 285 286 286 287 287 288 288 288 289 290 291 291 291 292 293 293 294 295
289 289 289 288 288 289 289 290 288 288 289 289 288 288 288 288 287 287 286 285 285 285 284 284 284 284 284 285 285 286 287 287 288 288 288 289 290 291 291 292 293 293 293 293
289 290 290 288 288 289 289 289 289 289 289 289 289 289 288 288 287 286 285 284 284 284 284 284 284 283 284 284 285 285 286 287 287 288 288 289 290 290 291 291 292 293 293 292
289 289 289 287 289 289 289 290 290 290 289 289 289 289 288 287 286 285 284 284 284 284 283 283 283 283 284 285 285 286 286 287 287 287 288 288 289 290 291 291 291 292 292 292
290 290 289 290 290 290 290 290 290 290 290 288 287 287 287 286 285 284 284 284 283 283 283 283 283 284 284 285 286 286 287 287 287 287 287 288 289 290 290 291 290 291 292 292
290 290 290 290 290 290 290 290 290 289 287 287 287 287 286 285 284 284 284 283 283 283 283 283 283 284 283 285 284 284 285 286 286 287 287 288 288 289 290 291 290 291 290 291
290 290 290 290 290 289 288 289 288 287 287 287 286 285 285 284 284 284 283 282 282 282 283 283 283 282 281 281 283 283 283 284 286 286 287 287 288 288 289 289 290 289 289 290
291 290 289 289 289 287 288 288 287 286 287 285 284 284 284 284 283 283 282 282 282 282 282 281 281 280 280 280 281 281 281 282 284 285 286 287 288 288 288 287 287 286 286 287
290 289 289 289 288 287 288 287 286 286 284 284 284 283 283 283 282 282 281 281 282 282 280 279 279 279 279 279 280 280 280 281 282 284 285 286 287 288 288 288 287 286 286 286
288 288 288 287 288 287 286 286 285 284 283 283 283 283 283 282 281 281 281 281 280 279 279 278 278 278 278 278 279 279 280 280 281 282 284 285 286 287 287 287 287 287 287 286
288 288 289 287 286 286 286 285 285 284 284 284 283 283 282 281 280 280 280 279 278 278 277 277 277 277 277 278 278 279 280 280 281 282 283 284 286 286 286 286 286 286 286 284
289 288 287 287 287 286 286 285 285 284 284 283 283 282 281 280 280 279 279 278 277 277 276 276 276 276 277 277 277 279 280 280 281 283 283 284 284 284 283 283 283 283 283 282
288 287 287 286 287 286 285 284 284 284 283 283 282 280 280 279 279 278 278 277 276 276 276 276 275 276 276 276 277 278 279 280 281 282 282 282 281 281 281 281 281 281 281 280
289 289 288 288 287 286 285 284 283 283 283 282 280 280 279 279 278 278 277 276 275 275 274 274 274 275 275 275 276 277 278 279 279 279 279 279 279 279 279 279 279 278 278 279
287 287 286 286 286 285 285 283 283 283 282 281 280 278 278 278 277 276 277 276 275 275 274 274 273 274 274 273 274 276 276 277 277 277 276 276 276 276 276 276 277 275 275 276
287 287 286 286 285 284 283 283 283 282 281 280 278 277 276 276 276 275 276 276 275 274 274 273 273 273 273 273 273 274 274 274 274 274 274 274 273 274 273 273 273 273 272 272
287 286 285 285 284 284 283 283 282 282 280 280 279 277 276 276 276 275 275 276 275 274 273 273 272 272 273 272 273 273 273 273 273 273 273 273 272 272 272 272 272 272 271 271
287 286 285 285 284 283 283 282 282 281 280 279 278 277 276 276 276 275 275 275 275 273 273 273 272 271 272 272 273 273 273 273 273 273 273 272 272 271 271 271 271 270 270 270
287 286 285 284 284 283 283 282 282 281 280 279 277 276 277 277 276 276 276 275 274 274 274 273 272 272 272 273 273 273 273 272 272 272 272 272 271 271 271 270 270 270 269 269
286 285 285 284 283 283 282 282 281 280 280 279 278 277 277 276 276 275 275 274 274 273 274 273 272 272 272 272 272 272 272 272 272 272 271 271 271 271 270 270 270 269 269 269
286 285 284 283 283 283 282 281 281 280 279 279 278 277 276 276 275 275 274 274 273 273 274 273 273 272 272 272 272 272 272 272 272 271 271 271 271 270 270 270 269 269 268 268
285 285 284 284 284 283 282 281 280 279 279 279 278 277 277 276 275 275 275 274 274 273 273 273 272 272 272 272 272 271 271 271 271 271 270 270 270 269 269 268 268 267 267 266
285 285 284 283 283 282 281 281 280 279 279 279 278 277 276 276 275 275 274 274 273 273 273 272 272 272 271 271 271 271 270 270 269 269 268 268 268 268 267 266 266 265 265 265
Wind_Speed
9 13 8 4 5 4 3 2 4 5 6 11 11 9 9 11 12 14 15 15 15 15 23 28 28 28 28 27 27 26 26 28 30 29 29 29 29 29 27 22 18 18 18 13
12 8 6 10 8 9 9 4 8 10 12 7 10 10 8 11 12 13 14 14 15 20 25 27 28 27 27 27 27 26 26 27 30 30 30 30 31 30 28 25 21 18 18 17
4 2 2 7 7 9 6 6 5 7 11 3 9 12 10 9 13 12 12 13 14 20 24 27 27 26 27 27 27 27 26 27 29 30 29 29 30 28 31 27 22 22 20 18
5 3 2 1 3 5 8 12 10 11 11 11 11 11 12 11 10 11 12 12 17 21 25 26 26 26 27 25 26 26 26 27 28 29 29 29 28 28 29 29 24 22 20 20
3 4 10 4 2 3 4 15 12 13 11 10 8 7 11 14 12 12 13 15 19 20 26 25 25 26 26 24 25 24 26 27 28 28 27 26 28 27 26 27 26 24 22 21
1 3 4 1 1 4 3 10 3 3 8 10 7 11 11 12 14 14 15 17 19 23 26 24 24 24 24 23 23 24 26 26 25 25 24 24 25 25 25 22 23 24 23 24
5 5 7 5 4 4 4 4 7 7 10 8 5 6 12 16 15 12 15 18 20 24 23 23 23 23 22 21 21 24 23 23 24 24 24 21 22 23 23 23 21 23 22 24
3 3 6 8 3 3 6 11 12 12 10 10 9 11 13 13 13 15 16 17 21 21 22 21 20 20 21 21 23 23 23 23 24 25 24 23 22 24 23 23 20 21 21 22
8 5 3 7 7 10 11 12 14 10 11 8 10 12 12 11 13 14 14 18 19 19 20 19 19 19 20 21 23 24 23 23 23 24 24 23 22 22 20 23 19 19 19 20
2 6 14 12 8 10 10 10 10 7 5 8 10 11 10 11 13 13 16 17 17 17 18 19 19 18 18 20 22 23 22 22 22 22 24 22 21 20 21 18 20 18 19 20
8 11 8 11 7 5 7 3 2 3 5 7 8 9 10 11 12 15 16 17 16 15 15 16 16 18 19 21 21 22 22 21 21 20 20 20 18 16 17 18 17 22 21 19
6 9 4 5 3 3 2 2 3 3 6 6 7 9 10 10 13 15 16 16 16 15 14 15 17 18 20 21 21 21 20 19 20 19 19 19 18 18 17 19 20 23 26 25
4 8 6 3 4 6 4 3 2 3 2 5 7 5 8 11 14 14 14 16 16 13 15 17 18 18 20 21 21 21 19 18 18 17 18 19 18 19 20 21 20 23 26 29
7 6 3 6 5 9 7 3 1 2 3 4 3 5 9 11 12 14 14 13 13 16 16 18 18 19 21 20 20 20 18 16 15 16 16 18 18 18 19 20 22 23 24 29
13 11 5 5 7 6 4 3 2 1 3 3 3 6 9 10 11 12 11 13 13 13 16 17 18 19 20 20 20 18 16 15 14 14 14 16 17 17 18 20 20 21 22 27
14 12 10 8 7 5 5 5 4 1 1 1 3 5 5 7 7 9 10 12 13 14 15 16 17 19 20 20 19 17 16 14 15 13 14 16 16 17 18 17 18 19 21 26
9 11 11 10 9 8 9 7 5 2 3 1 0 2 3 4 5 7 8 10 10 11 13 15 17 17 18 20 18 16 15 15 15 14 15 16 16 16 17 17 19 19 20 23
14 16 18 14 10 8 8 10 7 6 5 4 3 2 1 2 3 6 7 9 10 9 13 15 15 15 16 18 16 15 14 14 14 14 14 15 15 15 16 17 18 20 21 22
20 15 15 14 12 11 11 10 9 8 8 7 5 5 2 1 1 4 4 7 9 11 15 15 15 14 15 17 16 14 14 15 15 14 15 15 15 16 17 17 18 19 20 21
18 19 18 15 14 14 12 10 11 11 10 9 8 8 6 4 2 2 3 3 5 8 10 12 13 13 13 14 15 14 14 15 15 15 16 16 16 16 16 17 17 17 19 19
18 19 18 18 17 16 14 14 14 13 12 11 11 12 10 7 6 3 2 2 3 6 7 9 11 12 12 13 12 13 13 13 13 13 14 14 15 15 16 16 16 16 17 18
18 19 19 20 19 17 16 16 16 14 14 13 13 12 12 9 8 8 6 3 3 5 5 7 8 11 12 12 11 11 12 12 12 12 12 13 13 14 14 15 16 17 16 17
21 23 22 22 22 21 18 18 17 17 16 16 17 15 14 11 10 8 8 6 4 4 4 5 8 10 11 9 10 10 11 11 12 12 12 13 12 13 13 14 15 15 16 17
21 22 24 23 20 18 18 19 19 18 17 16 16 15 14 12 10 9 7 7 6 5 4 5 7 10 10 9 10 10 11 11 12 13 14 14 14 15 16 16 17 17 17 18
23 24 23 24 22 21 21 21 20 19 18 17 16 16 15 13 11 9 8 6 6 5 5 7 9 11 10 10 11 12 13 14 15 16 16 18 18 18 19 19 19 20 21 20
23 23 26 30 29 24 23 23 22 21 20 19 18 17 16 14 12 11 8 8 6 6 6 6 8 9 9 10 12 14 15 16 17 18 19 19 20 21 21 21 22 22 22 22
21 23 21 20 22 23 25 26 23 22 24 22 21 19 18 15 14 12 11 8 8 7 7 8 8 9 11 13 14 14 16 17 18 19 19 18 19 19 20 20 21 21 21 21
Wind_Direction
259 279 253 233 240 258 267 241 250 308 254 282 287 281 292 303 316 329 330 332 335 339 341 343 344 345 346 345 346 348 354 354 349 349 355 357 348 343 338 339 338 331 320 306
305 322 219 258 257 243 243 214 257 266 277 261 273 289 285 307 323 319 323 325 329 335 342 342 342 343 343 344 346 351 354 355 348 348 353 357 350 346 343 341 345 346 339 324
296 21 265 279 271 224 220 215 220 267 287 282 294 303 305 298 310 310 315 319 328 333 339 339 340 343 343 343 346 350 352 355 350 348 353 354 349 345 350 347 347 353 354 342
306 328 287 218 236 239 236 264 229 264 266 259 265 286 292 297 292 309 316 317 325 332 337 337 337 341 340 343 345 348 349 350 349 349 352 354 349 347 349 350 353 359 356 358
290 293 287 277 218 232 223 297 292 275 286 272 293 295 298 331 314 314 311 318 328 333 335 335 337 338 339 340 343 345 347 346 347 347 349 354 348 346 350 353 360 5 8 8
211 287 264 215 316 191 174 296 324 242 301 297 312 312 324 324 317 311 322 329 332 334 334 337 338 339 339 341 341 341 342 341 342 347 346 352 348 341 351 353 7 12 16 15
233 247 275 233 216 174 297 322 317 307 310 292 279 276 299 314 321 321 333 335 337 336 335 336 338 339 339 341 342 339 338 340 343 349 348 352 353 345 352 358 3 12 14 17
179 236 271 187 195 219 276 293 291 300 298 298 281 294 310 320 328 335 337 339 340 337 337 339 344 344 343 344 340 340 341 345 347 347 349 353 358 350 357 3 5 6 9 14
206 228 192 190 254 269 276 279 287 297 302 298 300 311 322 330 333 337 339 339 340 340 338 341 347 349 347 346 346 343 347 349 349 348 351 356 359 359 349 5 8 12 8 11
223 231 233 250 253 264 281 281 289 286 295 312 306 324 330 336 340 338 339 340 339 341 341 341 348 351 352 352 353 353 349 348 349 349 350 355 359 4 357 356 4 11 13 12
249 259 245 256 248 279 304 281 250 307 306 317 330 335 340 338 342 339 338 339 340 341 343 343 346 346 348 348 348 348 346 347 349 350 350 351 352 357 2 7 4 12 15 18
225 198 200 242 241 193 210 271 306 313 322 352 354 341 343 344 344 342 342 343 342 341 343 346 339 340 342 344 344 342 340 341 342 346 351 354 352 350 359 11 17 22 22 21
178 173 195 202 212 204 225 263 302 315 47 358 357 1 352 343 345 345 347 345 343 353 344 342 341 340 341 341 339 339 337 333 334 343 346 349 354 356 354 357 7 12 18 19
183 139 177 188 211 215 223 250 203 112 53 11 17 9 357 350 349 350 349 351 353 343 346 346 346 347 346 346 344 340 339 336 336 338 342 346 350 353 356 356 356 360 7 9
205 205 201 152 193 214 217 197 209 355 4 14 13 3 360 356 351 354 355 349 350 356 356 354 353 352 351 349 347 346 347 346 340 340 345 348 351 355 358 360 360 1 2 7
198 204 202 208 214 218 217 201 230 247 10 60 1 3 2 355 355 355 357 359 4 6 3 1 357 352 354 355 354 356 356 351 354 356 358 0 3 4 4 4 5 4 9 11
167 196 204 216 220 222 212 210 206 199 164 171 54 347 359 10 2 360 4 8 8 10 8 5 359 357 358 360 3 3 5 11 15 16 15 7 3 3 6 8 8 7 7 7
197 195 195 204 210 211 196 195 183 177 185 176 173 182 59 29 3 356 360 1 7 12 12 7 5 4 3 3 5 7 10 13 16 20 18 17 14 12 9 8 6 4 360 360
200 192 188 196 197 191 186 185 184 179 174 180 186 183 165 149 1 353 347 357 1 3 3 2 4 10 10 7 13 10 11 13 15 15 14 12 12 11 9 6 3 2 0 359
198 202 191 190 186 178 179 184 181 182 184 183 181 180 185 195 221 335 341 356 10 354 347 354 5 9 9 9 17 17 17 17 16 15 14 15 13 11 9 8 6 3 2 360
192 189 185 181 183 184 186 182 183 190 191 192 194 198 198 199 218 236 284 297 338 350 354 360 9 7 5 8 13 15 15 13 12 10 8 5 2 2 1 359 359 358 355 354
187 184 184 181 179 187 188 187 189 191 192 196 202 199 197 204 211 230 235 253 304 329 351 359 3 2 6 17 7 9 9 8 5 1 358 357 354 350 349 347 345 345 344 344
190 188 182 181 184 191 187 189 192 194 197 202 203 201 204 208 208 213 229 228 257 293 320 335 340 354 0 3 1 359 356 353 352 349 345 341 336 334 330 332 331 330 331 332
186 186 187 187 179 176 186 195 196 200 203 205 205 205 203 200 211 220 231 243 249 275 278 305 331 339 348 343 344 344 341 338 335 332 329 326 323 323 321 320 320 319 319 319
189 188 179 173 180 195 196 192 194 199 201 204 206 207 206 208 212 212 214 232 249 260 275 292 310 319 324 325 325 326 325 323 320 319 318 318 317 316 313 312 312 311 311 309
185 190 188 188 195 194 189 184 192 195 197 203 208 206 205 206 209 213 219 230 242 258 270 288 307 316 315 316 318 318 318 318 318 315 313 312 310 309 308 309 308 308 308 306
194 192 195 193 188 189 190 190 190 196 198 201 204 205 203 203 206 209 218 223 240 257 277 292 304 311 315 316 317 317 317 317 315 313 313 311 310 310 310 310 309 309 308 306